Preview of NWS' New Version of Forecast
This preview is not operational and should not be used for support decisions.

Regional Weather Roundup (RWR)

Issued by National Weather Service (NWS)

                            
000
ASUS43 KDMX 232306
RWRIA 

WEATHER ROUNDUP FOR IOWA
NATIONAL WEATHER SERVICE DES MOINES IA
500 PM CST SAT FEB 23 2019

NOTE: "FAIR" INDICATES FEW OR NO CLOUDS BELOW 12,000 FEET WITH NO
SIGNIFICANT WEATHER AND/OR OBSTRUCTIONS TO VISIBILITY.

* - THESE STATIONS ARE NOT NWS STATIONS...THUS NOT UNDER NWS
QUALITY CONTROL.  THEY ALSO DO NOT REPORT WEATHER SUCH 
AS PRECIPITATION OR FOG.  

IAZ001>003-012>014-020>022-031>034-043>046-240000-
   NORTHWEST IOWA
  
CITY           SKY/WX    TMP DP  RH WIND       PRES   REMARKS
CARROLL *      HVY RAIN  32  32 100 N17G24    29.56F VSB 1/2 WCI  21  
CHEROKEE *     SNOW      28  28 100 N15G22    29.66F VSB 1/4 WCI  16  
DENISON *      HVY SNOW  30  30 100 MISG      29.60R VSB<1/4          
LE MARS *      MIX PCPN  27  25  93 N15G24    29.70S WCI  15          
ORANGE CITY *  LGT SNOW  28  27  93 N15G21    29.69S WCI  17          
SHELDON *      MIX PCPN  27  27 100 N20G25    29.67S WCI  13          
SIOUX CITY     LGT SNOW  27  23  85 N17G28    29.70R VSB 3/4 WCI  14  
SPENCER        SNOW      29  26  89 N24G31    29.68R VSB 1/4 WCI  15  
STORM LAKE *   HVY RAIN  28  28 100 N20G29    29.61S VSB<1/4 WCI  15  
$$
 
IAZ055>058-069>071-079>083-090>094-240000-
   SOUTHWEST IOWA
  
CITY           SKY/WX    TMP DP  RH WIND       PRES   REMARKS
ATLANTIC *     MIX PCPN  34  34 100 N26G36    29.49F WCI  21          
AUDUBON *      MIX PCPN  32  30  93 N21       29.51F WCI  20          
CLARINDA *     LGT SNOW  34  32  93 N13       29.52R VSB 3/4 WCI  25  
COUNCIL BLFS * MIX PCPN  30  30 100 N20G33    29.54S VSB<1/4 WCI  18  
CRESTON *      RAIN      34  32  93 NE14      29.45R WCI  24          
HARLAN  *      LGT RAIN  32  32 100 N22G32    29.52F WCI  19          
LAMONI         CLOUDY    35  34  96 NE8       29.43F FOG     WCI  29  
RED OAK *      MIX PCPN  34  34 100 N24G31    29.52R VSB 1/2 WCI  21  
SHENANDOAH *   SNOW      34  34 100 N16       29.52S VSB 1/2 WCI  23  
$$
 
IAZ047>049-059>061-072>074-084-240000-
   CENTRAL IOWA
  
CITY           SKY/WX    TMP DP  RH WIND       PRES   REMARKS
AMES           LGT RAIN  33  32  96 NE16G23   29.51F FOG     WCI  23  
ANKENY *       LGT RAIN  34  32  93 NE14      29.48F VSB 3/4 WCI  24  
BOONE *        LGT RAIN  32  32 100 NE15      29.50F WCI  22          
CHARITON *     FOG       34  34 100 E9        29.43F VSB 1/2 WCI  26  
DES MOINES     LGT RAIN  33  32  96 NE17      29.44F VSB 3/4 WCI  22  
GRINNELL*      LGT RAIN  32  32 100 MISG      29.47F VSB 1/4          
KNOXVILLE *    LGT RAIN  34  34 100 E15G21    29.43F VSB<1/4 WCI  24  
MARSHALLTOWN   FOG       33  33 100 NE17      29.49F VSB 3/4 WCI  22  
NEWTON *       FOG       34  32  93 NE10G18   29.46F VSB<1/4 WCI  26  
PELLA *        FOG       34  33  98 E7G16     29.46F VSB 1/4 WCI  28  
PERRY *        LGT RAIN  33  33 100 N12G17    29.53S WCI  25          
$$
 
IAZ004>006-015-016-023>025-035-036-240000-
   NORTH CENTRAL IOWA
  
CITY           SKY/WX    TMP DP  RH WIND       PRES   REMARKS
ALGONA *       SNOW      32  32 100 N23G32    29.59F VSB<1/4 WCI  19  
CLARION *      CLOUDY    32  32 100 NE16      29.58F FOG     WCI  21  
ESTHERVILLE    SNOW      29  28  96 N20       29.67R VSB 1/2 WCI  16  
FORT DODGE *   LGT SNOW  32  31  96 N14G24    29.56F FOG     WCI  22  
MASON CITY     FRZ RAIN  32  32 100 NE20      29.60F FOG     WCI  20  
FOREST CITY *  SNOW      32  32 100 N15G22    29.61F VSB 1/2 WCI  22  
IOWA FALLS *   LGT RAIN  33  33  99 NE13G20   29.55F VSB 1   WCI  24  
$$

IAZ007>011-017>019-026>030-037>042-050>054-066-240000-
   NORTHEAST IOWA
  
CITY           SKY/WX    TMP DP  RH WIND       PRES   REMARKS
CEDAR RAPIDS   LGT RAIN  33  33 100 E21       29.51F FOG     WCI  21  
CHARLES CITY * FOG       32  32 100 NE12G20   29.59F VSB 1/4 WCI  23  
CLINTON *      LGT RAIN  34  33  96 E17       29.55F FOG     WCI  23  
DECORAH *      MIX PCPN  32  32 100 NE13      29.57F VSB 1/2 WCI  22  
DUBUQUE        FOG       33  31  92 NE16      29.55F VSB 1/4 WCI  23  
OELWEIN *      FOG       32  32 100 E16       29.56F VSB 1/2 WCI  21  
WATERLOO       FOG       34  33  96 NE15      29.54F VSB 1   WCI  24  
$$
 
IAZ064-065-067-068-078-240000-
   EAST CENTRAL IOWA
  
CITY           SKY/WX    TMP DP  RH WIND       PRES   REMARKS
DAVENPORT      FOG       34  33  96 E15       29.55F VSB 3/4 WCI  24  
IOWA CITY      LGT RAIN  35  33  92 E8G21     29.53F FOG     WCI  29  
MT. PLEASANT * FOG       37  37 100 E10       29.47F VSB 1/2 WCI  30  
MUSCATINE *    CLOUDY    37  36  93 E16       29.51F WCI  28          
QUAD CITIES    CLOUDY    37  35  92 E15       29.52F FOG     WCI  28  
$$
 
IAZ062-063-075>077-085>089-095>099-240000-
   SOUTHEAST IOWA
  
CITY           SKY/WX    TMP DP  RH WIND       PRES   REMARKS
BURLINGTON     CLOUDY    40  38  93 E9        29.48F FOG     WCI  34  
FAIRFIELD *    CLOUDY    36  36 100 E14       29.44F FOG     WCI  27  
FORT MADISON * CLOUDY    39  39 100 E5        29.48F FOG              
KEOKUK *       FOG       41  39  93 E12G20    29.46F VSB 1            
OSKALOOSA *    LGT RAIN  34  33  99 E15       29.44F WCI  24          
OTTUMWA        LGT RAIN  35  35 100 E14       29.43F FOG     WCI  26  
WASHINGTON *   FOG       36  36 100 E14       29.48F VSB<1/4 WCI  27  
$$

ABBREVIATIONS USED IN REMARKS
   TC - TEMPERATURES IN CELSIUS
  WCI - WIND CHILL INDEX
   HX - HEAT INDEX
  VSB - VISIBILITY  
$$